Location: ??????????
(55.8167°N, 39.2000°E)
Time: 21:37:01
(UTC+00:00)

Daily predictions for brighter satellites

Satellite Brightness Start Highest point End
(mag) Time Altitude Azimuth Time Altitude Azimuth Time Altitude Azimuth
BREEZE-M DEB (TANK) 4.1 14:46:55 10° WSW 14:50:19 47° S 15:01:29 10° ESE
NOSS 3-4 (A) 3.8 14:45:03 10° NW 14:51:15 64° NNE 14:58:36 10° ESE
NOSS 3-4 (C) 3.8 14:45:18 10° NW 14:51:32 64° NNE 14:58:54 10° ESE
Cosmos 1378 Rocket 4.0 14:50:44 10° SSE 14:54:45 39° E 14:58:46 10° NNE
Cosmos 2297 Rocket 3.6 14:51:21 10° SE 14:54:52 17° E 14:58:25 10° ENE
In-Cosmos 22 Rocket 4.2 14:49:27 10° S 14:54:57 72° E 15:00:39 10° NNE
Sich 1 Rocket 4.1 14:51:23 10° N 14:55:39 38° ENE 14:59:55 10° SE
CZ-2D R/B 2.6 14:52:40 10° SSE 14:55:44 79° ENE 14:58:48 10° NNW
Cosmos 1459 Rocket 4.3 14:51:31 10° NNW 14:57:44 78° W 15:04:01 10° S
RESURS DK-1 4.4 14:55:56 10° NNW 14:57:45 13° NNE 14:59:35 10° NE
Thor Agena Rocket 4.0 14:53:09 10° S 14:58:13 69° WSW 15:03:25 10° NNW
CZ-2D R/B 3.8 14:57:15 10° SE 15:00:56 39° ENE 15:04:43 10° N
Meteor 1-21 Rocket 4.4 14:55:27 10° S 15:01:17 65° E 15:07:09 10° NNE
SKYMED 2 4.3 14:59:35 10° NNE 15:03:34 33° E 15:07:30 10° SSE
BREEZE-M DEB (TANK) 4.2 15:01:02 10° WSW 15:03:47 37° S 15:10:13 10° ESE
GP-B 3.1 15:02:10 10° SSE 15:06:29 64° E 15:10:49 10° N
Cosmos 1025 Rocket 3.7 15:04:07 10° SSE 15:07:56 32° E 15:11:48 10° NNE
Cosmos 1356 Rocket 3.2 15:04:47 10° NNW 15:08:43 72° ENE 15:12:40 10° SSE
ATLAS 2AS CENTAUR R/B 3.1 15:02:18 10° WSW 15:09:11 64° NNW 15:15:58 10° NE
Resurs 01 Rocket 2.3 15:06:33 10° SE 15:10:26 32° ENE 15:14:21 10° N
ATLAS CENTAUR R/B 2.7 15:09:26 10° NW 15:11:13 15° N 15:12:59 10° NE
Cosmos 1727 Rocket 4.4 15:05:12 10° SSW 15:11:23 70° WNW 15:17:35 10° N
Cosmos 2016 Rocket 4.1 15:05:42 10° NNW 15:11:57 90° E 15:18:16 10° S
Resurs 1-3 3.6 15:09:38 10° SSE 15:13:53 61° ENE 15:18:08 10° N
SJ-6F 4.4 15:12:00 10° SSE 15:15:56 83° WSW 15:19:54 10° NNW
Cosmos 2292 Rocket 2.5 15:13:47 10° S 15:16:41 78° E 15:19:57 10° NNE
Cosmos 1980 3.7 15:13:10 10° NNW 15:18:51 72° NE 15:24:30 10° SE
COSMOS 2428 3.2 15:13:49 10° NW 15:19:31 66° WSW 15:25:10 10° SSE
SPOT 1/Viking Rocket 3.7 15:14:57 10° SSE 15:20:05 82° WSW 15:25:16 10° NNW
Cosmos 1802 Rocket 4.4 15:14:03 10° NNW 15:20:26 72° W 15:26:49 10° S
Cosmos 1782 4.2 15:19:19 10° NNE 15:21:39 16° ENE 15:23:25 12° E
Cosmos 2285 Rocket 4.0 15:16:07 10° NNW 15:22:36 76° ENE 15:29:00 10° SE
Cosmos 2237 Rocket 2.2 15:18:34 10° NNW 15:24:16 73° NE 15:29:58 10° SE
USA 290 2.2 15:22:12 10° SSW 15:25:21 61° ESE 15:28:30 10° NE
Cosmos 2242 Rocket 3.7 15:21:51 10° SSW 15:26:13 82° WNW 15:30:38 10° N
Cosmos 2233 Rocket 4.0 15:20:37 10° NNW 15:26:54 88° ENE 15:33:14 10° S
IRS-P3 4.4 15:22:36 10° S 15:27:55 73° WSW 15:33:17 10° NNW
Cosmos 2084 Rocket 4.5 15:26:34 10° W 15:30:25 35° NNW 15:34:00 12° NE
Cosmos 1674 Rocket 3.6 15:26:14 10° S 15:30:34 61° E 15:34:57 10° NNE
USA 267 3.4 15:25:08 11° ENE 15:31:29 67° SSE 15:38:00 10° SW
Aureole 3 Rocket 2.8 15:30:08 10° N 15:34:34 59° ENE 15:37:58 10° SSE
Terra 3.5 15:34:25 13° ENE 15:35:29 14° NE 15:37:52 10° NNE
Lacrosse 5 rocket 1.0 15:32:04 10° WSW 15:35:32 63° SSE 15:38:04 18° ENE
Cosmos 1900 4.4 15:30:41 10° SW 15:35:47 87° NW 15:40:51 10° NE
NOSS 0 Rocket 4.5 15:32:18 10° NW 15:38:29 64° WSW 15:44:38 10° SSE
Cosmos 1867 3.6 15:34:43 10° SW 15:40:10 80° SE 15:45:29 11° NE
CARTOSAT-1 3.4 15:39:15 10° SSE 15:43:26 70° ENE 15:47:38 10° N
SJ-6B 3.0 15:40:23 10° SE 15:43:34 36° ENE 15:46:45 10° N
ERS-1 Rocket 4.3 15:44:43 17° ENE 15:46:18 19° NE 15:49:48 10° N
Okean O Rocket 3.7 15:47:30 11° NE 15:47:30 11° NE 15:48:26 10° NNE
SL-16 R/B 2.6 15:43:44 10° NNW 15:49:10 45° NE 15:53:30 16° ESE
SJ-7 4.1 15:46:53 10° SSE 15:50:36 86° WSW 15:54:17 10° NNW
Cosmos 2061 Rocket 4.3 15:45:21 10° NNW 15:51:45 75° W 15:58:03 10° S
Cosmos 2227 Rocket 3.4 15:49:47 10° SSE 15:53:51 21° ESE 15:55:02 20° E
Cosmos 1814 Rocket 4.1 15:49:20 10° SSW 15:54:37 82° WNW 15:59:53 10° NNE
SL-16 R/B 3.9 15:49:10 10° N 15:54:52 40° NW 16:00:33 10° WSW
Cosmos 1607 3.9 15:49:50 10° SW 15:55:56 73° SE 16:01:33 13° NE
SL-19 R/B 4.4 15:49:58 10° SSE 15:56:08 88° ENE 16:02:01 10° NNW
Cosmos 1125 Rocket 4.1 15:51:50 10° NNW 15:56:56 59° WSW 16:02:02 10° S
NOSS 3-3 (C) 4.0 15:53:42 10° SSW 15:58:54 53° SE 16:03:51 16° ENE
Cosmos 1544 Rocket 4.4 15:55:09 10° N 15:58:54 28° ENE 16:00:17 24° E
Meteor 1-31 Rocket 3.3 15:58:46 27° E 15:59:23 29° ENE 16:02:26 10° N
Cosmos 1570 Rocket 4.5 15:54:35 10° S 15:59:25 38° ESE 16:04:15 10° NE
DNEPR-1 R/B 3.8 15:56:04 10° NW 16:00:43 85° NE 16:05:35 13° SE
CZ-4C R/B 1.9 15:56:27 10° SW 16:00:51 65° SE 16:05:09 17° NE
Cosmos 1455 Rocket 2.9 16:00:10 10° N 16:04:30 82° ENE 16:08:48 10° SSE
Cosmos 1464 Rocket 4.0 15:58:58 10° N 16:05:18 59° ENE 16:11:32 10° SSE
ARIANE 6 FM1 Upper Stage 2.6 16:03:03 10° NW 16:07:00 59° NNE 16:08:42 30° E
Cosmos 1975 Rocket 3.6 16:05:47 10° SSE 16:09:43 34° E 16:13:39 10° NNE
Cosmos 158 Rocket 4.1 16:05:03 10° SW 16:09:53 68° WNW 16:14:47 10° NNE
YAOGAN 1 3.7 16:07:00 10° S 16:11:05 45° W 16:15:12 10° NNW
NOAA 6 4.4 16:10:18 10° S 16:15:26 68° WSW 16:20:37 10° NNW
COSMO-SKYMED 1 2.4 16:13:45 10° NNE 16:17:54 89° WNW 16:22:01 10° SSW
CZ-4B R/B 3.8 16:16:36 27° E 16:18:14 33° ENE 16:22:56 10° N
Okean 1 Rocket 4.4 16:14:24 10° NNW 16:18:34 42° W 16:22:41 10° SSW
Cosmos 2228 2.8 16:14:39 10° N 16:18:50 68° ENE 16:23:01 10° SSE
Cosmos 2208 Rocket 4.4 16:14:12 10° S 16:19:03 40° ESE 16:22:18 20° NE
Meteor 2-17 Rocket 4.4 16:15:33 10° S 16:21:26 57° E 16:27:21 10° NNE
Cosmos 2344 4.3 16:15:47 10° SSE 16:21:50 26° ESE 16:22:50 25° ESE
PSLV R/B 4.3 16:18:15 10° S 16:22:16 51° W 16:26:17 10° NNW
CZ-4 R/B 1.7 16:23:01 37° ENE 16:23:01 37° ENE 16:26:20 10° N
CZ-4B DEB 4.4 16:19:39 22° SE 16:22:56 47° ENE 16:28:09 10° N
Cosmos 2221 Rocket 3.9 16:19:57 10° SSW 16:24:25 71° WNW 16:28:57 10° N
SPOT 5 3.0 16:21:19 19° SE 16:24:44 54° ENE 16:29:44 10° N
Cosmos 773 Rocket 4.2 16:20:18 10° S 16:25:19 46° ESE 16:28:47 19° NE
NOSS 3-3 (A) 3.7 16:21:06 10° SW 16:26:29 79° SE 16:30:53 21° NE
CSL-04 Debris 4.2 16:26:06 16° SE 16:30:28 60° ENE 16:35:49 10° NNW
Cosmos 2082 Rocket 4.2 16:27:51 10° NW 16:31:46 19° N 16:35:42 10° NNE
CSL-04 Rocket 3.5 16:29:58 14° SSE 16:34:26 67° ENE 16:39:42 10° NNW
RESURS DK-1 3.4 16:32:52 10° NNW 16:36:06 29° NNE 16:36:06 29° NNE
Cosmos 2297 Rocket 2.1 16:32:21 10° SSW 16:37:59 75° ESE 16:42:26 17° NE
Cosmos 1943 3.7 16:32:59 10° NNW 16:38:26 43° NE 16:39:51 36° ENE
Cosmos 2150 Rocket 4.3 16:36:15 10° NNW 16:41:24 66° WSW 16:46:28 10° SSE
NOSS 3-4 (A) 4.4 16:35:52 10° NW 16:42:15 55° SW 16:49:45 10° SSE
NOSS 3-4 (C) 4.4 16:36:08 10° NW 16:42:32 56° SW 16:50:03 10° SSE
Cosmos 836 Rocket 4.4 16:37:19 10° SSW 16:42:34 71° ESE 16:46:48 16° NNE
Cosmos 2298 Rocket 4.3 16:38:26 10° NNW 16:43:42 68° WSW 16:48:56 10° SSE
Cosmos 1025 Rocket 4.5 16:41:17 10° SW 16:45:19 38° WNW 16:49:25 10° N
ATLAS CENTAUR R/B 2.6 16:43:21 10° NW 16:44:42 19° NNW 16:44:42 19° NNW
Resurs 01 Rocket 2.8 16:42:30 10° S 16:46:42 43° W 16:50:57 10° NNW
Feng Yun 1-1 Rocket 4.3 16:47:35 29° SE 16:50:34 66° ENE 16:56:27 10° NNW
Cosmos 1782 2.9 16:53:13 10° NNW 16:56:47 64° W 16:57:31 49° SSW
Tsikada Rocket 4.2 16:58:02 44° E 16:58:02 44° E 17:03:32 10° NNE
ATLAS 2AS CENTAUR R/B 3.4 16:54:34 10° WNW 17:01:07 44° N 17:04:05 29° NE
PAYLOAD B 4.1 17:03:44 40° SSE 17:05:52 78° ENE 17:11:30 10° NNW
Cosmos 2237 Rocket 4.1 17:03:07 10° NW 17:07:53 28° WSW 17:12:38 10° SSW
Cosmos 2263 Rocket 3.7 17:02:59 10° S 17:04:54 21° SSE 17:04:54 21° SSE
CZ-4B R/B 4.5 17:08:56 34° SSW 17:10:19 54° WSW 17:14:09 10° NNW
Terra 2.2 17:13:01 49° NNE 17:13:01 49° NNE 17:16:47 10° N
Lacrosse 5 rocket 1.9 17:08:49 10° W 17:11:30 48° WNW 17:11:30 48° WNW
TSX-5 4.3 17:08:34 10° NW 17:14:04 75° SW 17:14:44 63° S
USA 267 3.2 17:12:28 45° ENE 17:14:43 84° N 17:21:17 10° W
Okean-O 4.3 17:19:56 23° N 17:19:56 23° N 17:21:51 10° N
MOS 1-B 4.4 17:22:11 58° ENE 17:22:11 58° ENE 17:27:44 10° NNW
Cosmos 2034 Rocket 4.2 17:16:11 10° NNW 17:22:19 69° W 17:28:27 10° S
Cosmos 1816 Rocket 4.5 17:16:20 10° SSW 17:22:31 82° WNW 17:28:49 10° N
Okean O Rocket 3.2 17:24:44 25° N 17:24:44 25° N 17:26:45 10° N
ERS-1 Rocket 2.8 17:24:34 79° NNE 17:24:34 79° NNE 17:29:23 10° NNW
Cosmos 44 Rocket 3.6 17:19:32 10° SW 17:23:36 58° SSW 17:23:36 58° SSW
Cosmos 1833 Rocket 4.2 17:20:34 10° NNW 17:25:01 23° NNE 17:25:05 23° NNE
IRS-1A Rocket 4.2 17:29:19 70° ENE 17:29:19 70° ENE 17:34:57 10° NNW
Cosmos 1634 Rocket 3.9 17:24:26 10° N 17:30:50 86° ENE 17:32:21 55° SSE
Meteor 1-31 Rocket 4.4 17:32:45 29° W 17:32:45 29° W 17:35:34 10° NNW
ADEOS 3.5 17:32:11 76° SSW 17:32:32 82° WSW 17:37:47 10° NNW
SL-16 R/B 2.8 17:27:56 10° NW 17:33:26 51° WSW 17:35:24 35° SSW
Cosmos 2227 Rocket 2.1 17:31:30 10° SSW 17:36:56 83° SSW 17:36:56 83° SSW
Spot 2 Rocket 4.4 17:44:42 40° N 17:44:42 40° N 17:48:03 10° NNW
ARIANE 6 FM1 Upper Stage 4.4 17:42:14 10° WNW 17:44:43 29° W 17:44:43 29° W
CZ-4C R/B 2.8 17:44:31 10° W 17:49:19 50° NNW 17:50:06 46° N
NOSS 3-3 (C) 4.3 17:44:10 10° WSW 17:49:48 60° NNW 17:51:20 48° NNE
Cosmos 2279 Rocket 3.9 17:48:38 10° NNW 17:54:33 82° N 17:54:33 82° N
CZ-4 R/B 3.5 17:58:01 23° WNW 17:58:01 23° WNW 18:00:13 10° NW
CZ-4B R/B 3.6 17:58:27 57° WSW 17:58:36 57° WSW 18:03:51 10° NNW
Cosmos 2082 Rocket 4.1 18:13:51 10° NNW 18:17:34 20° N 18:17:34 20° N
Cosmos 2297 Rocket 3.6 18:17:23 10° WSW 18:22:32 34° NW 18:24:16 29° N
Cosmos 1943 4.0 18:17:05 10° NW 18:21:38 48° WNW 18:21:38 48° WNW
USA 281 4.3 18:28:51 34° NNE 18:28:51 34° NNE 18:33:30 10° NNW
Cosmos 2344 3.9 18:27:39 10° SW 18:32:55 49° SW 18:32:55 49° SW
Terra 4.1 18:51:38 21° WNW 18:51:38 21° WNW 18:53:56 10° NW
ATLAS 2AS CENTAUR R/B 3.4 18:46:24 10° NW 18:51:31 47° NNW 18:51:31 47° NNW
USA 267 4.0 18:59:49 48° WNW 18:59:49 48° WNW 19:04:21 10° WNW
Cosmos 2227 Rocket 4.4 19:16:54 10° W 19:18:49 19° W 19:18:49 19° W
CZ-4C R/B 4.4 19:33:21 10° WNW 19:35:04 20° NW 19:35:04 20° NW
CENTAUR R/B 4.5 22:56:20 27° NE 22:56:20 27° NE 22:59:36 10° NE
ACS3 Solar Sail 4.0 22:56:12 10° NNE 22:57:38 17° NNE 22:57:38 17° NNE
Cosmos 2278 Rocket 4.5 23:43:55 19° NNE 23:43:55 19° NNE 23:45:44 10° NNE
